Tracking 30923 objects as of 1-Jul-2025
HD Live streaming from Space Station
objects crossing your sky now

SL-8 R/B

Track SL-8 R/B now!
10-day predictions


NORAD ID: 25893
Int'l Code: 1999-045B
Perigee: 961.1 km
Apogee: 1,003.7 km
Inclination: 82.9 °
Period: 104.6 minutes
Semi major axis: 7353 km
RCS: 5.449 m2 (large)
Launch date: August 26, 1999
Source: Commonwealth of Independent States (former USSR) (CIS)
Launch site: PLESETSK MISSILE AND SPACE COMPLEX (PKMTR)

Note: This is a ROCKET BODY
Your satellite tracking list
COSMOS 1349
Track 1 satellite(s)




NASA's NSSDC Master Catalog

Two Line Element Set (TLE):
1 25893U 99045B   25181.58791966 -.00000023  00000-0 -38827-4 0  9991
2 25893  82.9259 359.1929 0028977 163.8059 262.9276 13.76794267298518
Source of the keplerian elements: AFSPC